Location: Caltech
(34.1382°N, 118.1253°W)
Time: 10:11:32
(UTC-08:00)

SO-67 - Visible Passes

Search period start: 12 February 2016 00:00
Search period end: 22 February 2016 00:00
Orbit: 424 x 429 km, 97.1° (Epoch: 12 February)

Date Brightness Start Highest point End Pass type
(mag) Time Alt. Az. Time Alt. Az. Time Alt. Az.
12 Feb ? 06:11:21 10° NE 06:14:11 27° E 06:17:01 10° SSE visible
12 Feb ? 18:07:13 10° S 18:10:27 76° W 18:13:42 10° NNW visible
13 Feb ? 18:59:17 10° WSW 19:00:47 13° W 19:02:17 10° WNW visible
14 Feb ? 18:15:22 10° S 18:18:33 54° W 18:21:45 10° NNW visible
16 Feb ? 18:23:30 10° S 18:26:34 40° W 18:29:39 10° NNW visible
17 Feb ? 05:46:48 10° ENE 05:48:04 12° E 05:49:20 10° ESE visible
18 Feb ? 18:31:36 10° SSW 18:34:29 30° W 18:37:23 10° NW visible
19 Feb ? 05:53:59 10° ENE 05:56:00 15° E 05:58:01 10° SE visible
20 Feb ? 18:39:41 10° SSW 18:42:19 23° W 18:44:58 10° NW visible
21 Feb ? 06:01:23 10° NE 06:03:50 20° E 06:06:16 10° SE visible
